Hourly Weather Agartala

Today, 27 November, Friday

Time Temperature Precipitation Wind Pressure Humidity
00:00 +21°C° 0 mm 1 mps 759 mmHg 78%
01:00 +21°C° 0 mm 1 mps 758 mmHg 78%
02:00 +21°C° 0 mm 1 mps 758 mmHg 78%
03:00 +20°C° 0 mm 1 mps 758 mmHg 77%
04:00 +20°C° 0 mm 1 mps 758 mmHg 79%
05:00 +19°C° 0 mm 1 mps 758 mmHg 80%
06:00 +19°C° 0 mm 1 mps 759 mmHg 82%
07:00 +21°C° 0 mm 1 mps 759 mmHg 77%
08:00 +23°C° 0 mm 1 mps 759 mmHg 73%
09:00 +24°C° 0 mm 2 mps 760 mmHg 69%
10:00 +26°C° 0 mm 2 mps 759 mmHg 63%
11:00 +28°C° 0 mm 2 mps 759 mmHg 57%
12:00 +29°C° 0 mm 2 mps 758 mmHg 52%
13:00 +29°C° 0 mm 2 mps 758 mmHg 52%
14:00 +29°C° 0 mm 2 mps 758 mmHg 52%
15:00 +29°C° 0 mm 2 mps 757 mmHg 52%
16:00 +27°C° 0 mm 2 mps 757 mmHg 57%
17:00 +25°C° 0 mm 2 mps 758 mmHg 63%
18:00 +23°C° 0 mm 1 mps 758 mmHg 68%
19:00 +23°C° 0 mm 1 mps 758 mmHg 68%
20:00 +23°C° 0 mm 1 mps 759 mmHg 68%
21:00 +22°C° 0 mm 1 mps 759 mmHg 67%
22:00 +22°C° 0 mm 1 mps 759 mmHg 68%
23:00 +21°C° 0 mm 1 mps 759 mmHg 70%

Tomorrow, 28 November, Saturday

Time Temperature Precipitation Wind Pressure Humidity
00:00 +20°C° 0 mm 2 mps 759 mmHg 71%
01:00 +20°C° 0 mm 1 mps 759 mmHg 72%
02:00 +20°C° 0 mm 1 mps 758 mmHg 73%
03:00 +20°C° 0 mm 1 mps 758 mmHg 74%
04:00 +20°C° 0 mm 1 mps 758 mmHg 75%
05:00 +20°C° 0 mm 1 mps 759 mmHg 76%
06:00 +17°C° 0 mm 0 mps 759 mmHg 77%
07:00 +21°C° 0 mm 1 mps 759 mmHg 72%
08:00 +23°C° 0 mm 1 mps 760 mmHg 68%
09:00 +25°C° 0 mm 1 mps 760 mmHg 63%
10:00 +26°C° 0 mm 1 mps 760 mmHg 60%
11:00 +27°C° 0 mm 2 mps 759 mmHg 56%
12:00 +29°C° 0 mm 2 mps 759 mmHg 53%
13:00 +29°C° 0 mm 2 mps 758 mmHg 52%
14:00 +29°C° 0 mm 2 mps 757 mmHg 52%
15:00 +29°C° 0 mm 1 mps 757 mmHg 51%
16:00 +27°C° 0 mm 1 mps 757 mmHg 57%
17:00 +25°C° 0 mm 1 mps 757 mmHg 63%
18:00 +22°C° 0 mm 0 mps 757 mmHg 69%
19:00 +23°C° 0 mm 1 mps 758 mmHg 69%
20:00 +23°C° 0 mm 1 mps 758 mmHg 69%
21:00 +22°C° 0 mm 1 mps 759 mmHg 70%
22:00 +22°C° 0 mm 1 mps 759 mmHg 70%
23:00 +21°C° 0 mm 1 mps 759 mmHg 71%

Day after tomorrow, 29 November, Sunday

Time Temperature Precipitation Wind Pressure Humidity
00:00 +21°C° 0 mm 1 mps 759 mmHg 72%
01:00 +20°C° 0 mm 1 mps 759 mmHg 73%
02:00 +20°C° 0 mm 1 mps 758 mmHg 74%
03:00 +20°C° 0 mm 1 mps 758 mmHg 75%
04:00 +20°C° 0 mm 1 mps 758 mmHg 76%
05:00 +19°C° 0 mm 1 mps 759 mmHg 77%
06:00 +19°C° 0 mm 1 mps 759 mmHg 78%
07:00 +21°C° 0 mm 1 mps 759 mmHg 73%
08:00 +23°C° 0 mm 1 mps 760 mmHg 68%
09:00 +25°C° 0 mm 1 mps 760 mmHg 62%
10:00 +27°C° 0 mm 1 mps 760 mmHg 58%
11:00 +28°C° 0 mm 2 mps 759 mmHg 53%
12:00 +30°C° 0 mm 2 mps 759 mmHg 49%
13:00 +30°C° 0 mm 2 mps 758 mmHg 48%
14:00 +30°C° 0 mm 1 mps 757 mmHg 48%
15:00 +30°C° 0 mm 1 mps 756 mmHg 47%
16:00 +28°C° 0 mm 1 mps 757 mmHg 51%
17:00 +26°C° 0 mm 1 mps 757 mmHg 55%
18:00 +22°C° 0 mm 0 mps 757 mmHg 59%
19:00 +24°C° 0 mm 1 mps 757 mmHg 61%
20:00 +23°C° 0 mm 1 mps 758 mmHg 62%
21:00 +22°C° 0 mm 1 mps 758 mmHg 63%
22:00 +22°C° 0 mm 1 mps 758 mmHg 65%
23:00 +21°C° 0 mm 1 mps 758 mmHg 67%

30 November, Monday

Time Temperature Precipitation Wind Pressure Humidity
00:00 +21°C° 0 mm 1 mps 758 mmHg 69%
01:00 +18°C° 0 mm 0 mps 758 mmHg 70%
02:00 +18°C° 0 mm 0 mps 758 mmHg 71%
03:00 +18°C° 0 mm 0 mps 758 mmHg 72%
04:00 +17°C° 0 mm 0 mps 758 mmHg 74%
05:00 +17°C° 0 mm 0 mps 758 mmHg 75%
06:00 +17°C° 0 mm 0 mps 758 mmHg 76%
07:00 +19°C° 0 mm 0 mps 759 mmHg 71%
08:00 +21°C° 0 mm 0 mps 759 mmHg 66%
09:00 +23°C° 0 mm 0 mps 760 mmHg 61%
10:00 +25°C° 0 mm 0 mps 759 mmHg 57%
11:00 +26°C° 0 mm 0 mps 759 mmHg 52%
12:00 +28°C° 0 mm 0 mps 758 mmHg 48%
13:00 +28°C° 0 mm 0 mps 758 mmHg 46%
14:00 +28°C° 0 mm 0 mps 757 mmHg 44%
15:00 +28°C° 0 mm 0 mps 756 mmHg 42%
16:00 +26°C° 0 mm 0 mps 757 mmHg 47%
17:00 +24°C° 0 mm 0 mps 757 mmHg 52%
18:00 +22°C° 0 mm 0 mps 757 mmHg 57%
19:00 +21°C° 0 mm 0 mps 757 mmHg 59%
20:00 +21°C° 0 mm 0 mps 758 mmHg 61%
21:00 +22°C° 0 mm 1 mps 758 mmHg 62%
22:00 +20°C° 0 mm 0 mps 758 mmHg 64%
23:00 +19°C° 0 mm 0 mps 759 mmHg 65%

1 December, Tuesday

Time Temperature Precipitation Wind Pressure Humidity
00:00 +19°C° 0 mm 0 mps 759 mmHg 67%
01:00 +18°C° 0 mm 0 mps 758 mmHg 68%
02:00 +18°C° 0 mm 0 mps 758 mmHg 70%
03:00 +17°C° 0 mm 0 mps 758 mmHg 72%
04:00 +19°C° 0 mm 1 mps 758 mmHg 73%
05:00 +19°C° 0 mm 1 mps 759 mmHg 74%
06:00 +19°C° 0 mm 1 mps 759 mmHg 76%
07:00 +21°C° 0 mm 1 mps 759 mmHg 71%
08:00 +23°C° 0 mm 1 mps 760 mmHg 66%
09:00 +23°C° 0 mm 0 mps 760 mmHg 61%
10:00 +25°C° 0 mm 0 mps 760 mmHg 56%
11:00 +27°C° 0 mm 0 mps 759 mmHg 51%
12:00 +28°C° 0 mm 0 mps 758 mmHg 46%
13:00 +28°C° 0 mm 0 mps 758 mmHg 44%
14:00 +28°C° 0 mm 0 mps 757 mmHg 42%
15:00 +28°C° 0 mm 0 mps 756 mmHg 40%
16:00 +26°C° 0 mm 0 mps 757 mmHg 45%
17:00 +24°C° 0 mm 0 mps 757 mmHg 49%
18:00 +22°C° 0 mm 0 mps 757 mmHg 53%
19:00 +21°C° 0 mm 0 mps 757 mmHg 55%
20:00 +20°C° 0 mm 0 mps 758 mmHg 56%
21:00 +20°C° 0 mm 0 mps 758 mmHg 58%
22:00 +19°C° 0 mm 0 mps 758 mmHg 60%
23:00 +19°C° 0 mm 0 mps 758 mmHg 62%

2 December, Wednesday

Time Temperature Precipitation Wind Pressure Humidity
00:00 +18°C° 0 mm 0 mps 758 mmHg 64%
01:00 +20°C° 0 mm 1 mps 758 mmHg 66%
02:00 +20°C° 0 mm 1 mps 757 mmHg 68%
03:00 +19°C° 0 mm 1 mps 757 mmHg 69%
04:00 +19°C° 0 mm 1 mps 757 mmHg 70%
05:00 +19°C° 0 mm 1 mps 758 mmHg 71%
06:00 +18°C° 0 mm 1 mps 758 mmHg 72%
07:00 +20°C° 0 mm 1 mps 758 mmHg 68%
08:00 +22°C° 0 mm 1 mps 759 mmHg 64%
09:00 +22°C° 0 mm 0 mps 759 mmHg 59%
10:00 +26°C° 0 mm 1 mps 759 mmHg 55%
11:00 +28°C° 0 mm 1 mps 758 mmHg 51%
12:00 +29°C° 0 mm 1 mps 758 mmHg 46%
13:00 +29°C° 0 mm 1 mps 757 mmHg 45%
14:00 +29°C° 0 mm 1 mps 756 mmHg 44%
15:00 +29°C° 0 mm 1 mps 756 mmHg 43%
16:00 +27°C° 0 mm 1 mps 756 mmHg 48%
17:00 +25°C° 0 mm 1 mps 756 mmHg 53%
18:00 +21°C° 0 mm 0 mps 756 mmHg 57%
19:00 +21°C° 0 mm 0 mps 756 mmHg 59%
20:00 +20°C° 0 mm 0 mps 757 mmHg 61%
21:00 +19°C° 0 mm 0 mps 757 mmHg 64%
22:00 +19°C° 0 mm 0 mps 757 mmHg 65%
23:00 +19°C° 0 mm 0 mps 757 mmHg 66%
Show more